Weather History for Naha City, Japan

Change the Weather History Date:

Tuesday, November 20, 2012

  Actual Average Record
Temperature  
Mean Temperature 68 °F -  
Max Temperature 73 °F 71 °F 82 °F (2003)
Min Temperature 64 °F 63 °F 62 °F (2004)
Cooling Degree Days 4    
Growing Degree Days 18 (Base 50)    
Moisture  
Dew Point 52 °F    
Average Humidity 55    
Maximum Humidity 64    
Minimum Humidity 47    
Precipitation  
Precipitation 0.00 in - - ()
Sea Level Pressure  
Sea Level Pressure 30.08 in    
Wind  
Wind Speed 5 mph ()    
Max Wind Speed 12 mph    
Max Gust Speed -    
Visibility 6.2 miles    
Events      
Averages and records for this station are not official NWS values.
T = Trace of Precipitation, MM = Missing Value Source: Averaged Metar Reports

Daily Weather History Graph

Daily Weather History Graph

Search for Another Location

Airport:

Trip Planner

Search our weather history database for the weather conditions in past years. The results will help you decide how hot, cold, wet, or windy it might be!

Date:

Astronomy

Nov. 20, 2012 Rise Set
Actual Time 6:51 AM JST 5:38 PM JST
Civil Twilight 6:27 AM JST 6:02 PM JST
Nautical Twilight 5:58 AM JST 6:30 PM JST
Astronomical Twilight 5:31 AM JST 6:58 PM JST
Moon 12:22 PM JST (11/20) No Moon Set
Length of Visible Light 11h 35m
Length of Day
10h 46m
Waxing Crescent, 45% of the Moon is Illuminated
Nov 20
Waxing Crescent
Nov 20
First Quarter
Nov 28
Full
Dec 7
Last Quarter
Dec 13
New

Hourly Weather History & Observations

Time (JST) Temp. Dew Point Humidity Pressure Visibility Wind Dir Wind Speed Gust Speed Precip Events Conditions
12:00 AM 66.2 °F 50.0 °F 56% 30.09 in 6.2 mi NNE 5.8 mph - N/A   Partly Cloudy
12:30 AM 68.0 °F 50.0 °F 52% 30.09 in 6.2 mi NE 4.6 mph - N/A   Partly Cloudy
1:00 AM 66.2 °F 50.0 °F 56% 30.09 in 6.2 mi NE 3.5 mph - N/A   Partly Cloudy
1:30 AM 66.2 °F 50.0 °F 56% 30.09 in 6.2 mi Variable 1.2 mph - N/A   Partly Cloudy
2:00 AM 64.4 °F 50.0 °F 59% 30.09 in 6.2 mi ENE 1.2 mph - N/A   Partly Cloudy
2:30 AM 64.4 °F 50.0 °F 59% 30.06 in 6.2 mi NE 3.5 mph - N/A   Partly Cloudy
3:00 AM 64.4 °F 51.8 °F 64% 30.06 in - NE 4.6 mph - N/A   Clear
3:30 AM 66.2 °F 51.8 °F 60% 30.06 in - NE 3.5 mph - N/A   Clear
4:00 AM 66.2 °F 51.8 °F 60% 30.06 in 6.2 mi NE 4.6 mph - N/A   Partly Cloudy
4:30 AM 66.2 °F 51.8 °F 60% 30.06 in 6.2 mi ENE 3.5 mph - N/A   Partly Cloudy
5:00 AM 66.2 °F 51.8 °F 60% 30.06 in 6.2 mi ENE 4.6 mph - N/A   Partly Cloudy
5:30 AM 66.2 °F 51.8 °F 60% 30.09 in 6.2 mi ENE 3.5 mph - N/A   Partly Cloudy
6:00 AM 64.4 °F 51.8 °F 64% 30.09 in 6.2 mi ENE 4.6 mph - N/A   Partly Cloudy
6:30 AM 64.4 °F 51.8 °F 64% 30.09 in 6.2 mi ENE 4.6 mph - N/A   Partly Cloudy
7:00 AM 64.4 °F 51.8 °F 64% 30.12 in 6.2 mi ENE 4.6 mph - N/A   Partly Cloudy
7:30 AM 66.2 °F 51.8 °F 60% 30.12 in 6.2 mi ENE 4.6 mph - N/A   Partly Cloudy
8:00 AM 68.0 °F 51.8 °F 56% 30.12 in 6.2 mi East 4.6 mph - N/A   Partly Cloudy
8:30 AM 68.0 °F 51.8 °F 56% 30.12 in 6.2 mi Variable 2.3 mph - N/A   Partly Cloudy
9:00 AM 69.8 °F 50.0 °F 49% 30.12 in 6.2 mi East 5.8 mph - N/A   Partly Cloudy
9:30 AM 69.8 °F 51.8 °F 53% 30.12 in 6.2 mi NE 6.9 mph - N/A   Partly Cloudy
10:00 AM 71.6 °F 53.6 °F 53% 30.12 in 6.2 mi NE 8.1 mph - N/A   Partly Cloudy
10:30 AM 71.6 °F 51.8 °F 50% 30.12 in 6.2 mi NE 9.2 mph - N/A   Partly Cloudy
11:00 AM 73.4 °F 51.8 °F 47% 30.12 in 6.2 mi NNE 10.4 mph - N/A   Partly Cloudy
11:30 AM 73.4 °F 51.8 °F 47% 30.09 in 6.2 mi North 11.5 mph - N/A   Partly Cloudy
12:00 PM 73.4 °F 51.8 °F 47% 30.09 in 6.2 mi NNE 8.1 mph - N/A   Partly Cloudy
12:30 PM 73.4 °F 51.8 °F 47% 30.06 in 6.2 mi NNE 10.4 mph - N/A   Partly Cloudy
1:00 PM 73.4 °F 53.6 °F 50% 30.06 in 6.2 mi North 11.5 mph - N/A   Partly Cloudy
1:30 PM 71.6 °F 51.8 °F 50% 30.06 in 6.2 mi NNE 10.4 mph - N/A   Partly Cloudy
2:00 PM 73.4 °F 51.8 °F 47% 30.04 in 6.2 mi North 9.2 mph - N/A   Partly Cloudy
2:30 PM 73.4 °F 51.8 °F 47% 30.04 in 6.2 mi North 8.1 mph - N/A   Partly Cloudy
3:00 PM 71.6 °F 53.6 °F 53% 30.04 in 6.2 mi North 10.4 mph - N/A   Partly Cloudy
3:30 PM 71.6 °F 53.6 °F 53% 30.04 in 6.2 mi North 9.2 mph - N/A   Partly Cloudy
4:00 PM 71.6 °F 53.6 °F 53% 30.04 in 6.2 mi North 10.4 mph - N/A   Partly Cloudy
4:30 PM 71.6 °F 51.8 °F 50% 30.04 in 6.2 mi North 11.5 mph - N/A   Partly Cloudy
5:00 PM 69.8 °F 51.8 °F 53% 30.04 in 6.2 mi North 11.5 mph - N/A   Partly Cloudy
5:30 PM 69.8 °F 51.8 °F 53% 30.04 in 6.2 mi North 9.2 mph - N/A   Partly Cloudy
6:00 PM 69.8 °F 51.8 °F 53% 30.06 in 6.2 mi NE 5.8 mph - N/A   Partly Cloudy
6:30 PM 68.0 °F 51.8 °F 56% 30.06 in 6.2 mi NNE 5.8 mph - N/A   Partly Cloudy
7:00 PM 69.8 °F 53.6 °F 56% 30.06 in 6.2 mi NE 4.6 mph - N/A   Partly Cloudy
7:30 PM 69.8 °F 53.6 °F 56% 30.06 in 6.2 mi NE 4.6 mph - N/A   Partly Cloudy
8:00 PM 69.8 °F 53.6 °F 56% 30.09 in 6.2 mi NE 4.6 mph - N/A   Partly Cloudy
8:30 PM 69.8 °F 53.6 °F 56% 30.09 in 6.2 mi East 3.5 mph - N/A   Partly Cloudy
9:00 PM 69.8 °F 53.6 °F 56% 30.09 in 6.2 mi East 4.6 mph - N/A   Partly Cloudy
9:30 PM 68.0 °F 53.6 °F 60% 30.09 in 6.2 mi ENE 4.6 mph - N/A   Scattered Clouds
10:00 PM 68.0 °F 53.6 °F 60% 30.09 in 6.2 mi NE 5.8 mph - N/A   Partly Cloudy
10:30 PM 68.0 °F 53.6 °F 60% 30.09 in 6.2 mi ENE 5.8 mph - N/A   Partly Cloudy
11:00 PM 68.0 °F 53.6 °F 60% 30.09 in 6.2 mi East 3.5 mph - N/A   Partly Cloudy
11:30 PM 68.0 °F 53.6 °F 60% 30.09 in 6.2 mi ENE 4.6 mph - N/A   Partly Cloudy